Weather History for Red Wing, MN

Change the Weather History Date:

Sunday, January 5, 2014

  Actual Average Record
Temperature  
Mean Temperature -6 °F -  
Max Temperature 1 °F 24 °F 48 °F (2012)
Min Temperature -16 °F 9 °F -18 °F (1999)
Degree Days  
Heating Degree Days 72    
Moisture  
Dew Point -18 °F    
Average Humidity 60    
Maximum Humidity 71    
Minimum Humidity 43    
Precipitation  
Precipitation 0.00 in - - ()
Sea Level Pressure  
Sea Level Pressure 30.30 in    
Wind  
Wind Speed 7 mph (NW)    
Max Wind Speed 15 mph    
Max Gust Speed 21 mph    
Visibility 9 miles    
Events      
Averages and records for this station are not official NWS values.
T = Trace of Precipitation, MM = Missing Value Source: NWS Daily Summary

Daily Weather History Graph

Daily Weather History Graph

Search for Another Location

Airport:

Trip Planner

Search our weather history database for the weather conditions in past years. The results will help you decide how hot, cold, wet, or windy it might be!

Date:

Astronomy

Jan. 05, 2014 Rise Set
Actual Time 7:46 AM CST 4:44 PM CST
Civil Twilight 7:13 AM CST 5:17 PM CST
Nautical Twilight 6:36 AM CST 5:54 PM CST
Astronomical Twilight 6:01 AM CST 6:29 PM CST
Moon 10:15 AM CST (1/5) 10:27 PM CST (1/5)
Length of Visible Light 10h 04m
Length of Day
8h 57m
Waxing Crescent, 25% of the Moon is Illuminated
Jan 5
Waxing Crescent
Jan 7
First Quarter
Jan 15
Full
Jan 23
Last Quarter
Jan 30
New

Hourly Weather History & Observations

Time (CST) Temp. Windchill Dew Point Humidity Pressure Visibility Wind Dir Wind Speed Gust Speed Precip Events Conditions
12:21 AM 1.4 °F -12.5 °F -9.4 °F 61% 30.22 in 10.0 mi NW 8.1 mph - N/A   Clear
1:01 AM -0.4 °F -14.7 °F -9.4 °F 66% 30.24 in 10.0 mi NW 8.1 mph - N/A   Clear
1:41 AM -0.4 °F -13.4 °F -9.4 °F 66% 30.25 in 10.0 mi NW 6.9 mph - N/A   Clear
2:01 AM -2.2 °F -15.6 °F -9.4 °F 71% 30.25 in 10.0 mi NW 6.9 mph - N/A   Clear
2:21 AM -2.2 °F -15.6 °F -11.2 °F 66% 30.26 in 10.0 mi NW 6.9 mph - N/A   Clear
2:41 AM -2.2 °F -12.5 °F -11.2 °F 66% 30.26 in 10.0 mi NW 4.6 mph - N/A   Clear
3:01 AM -4.0 °F -17.8 °F -11.2 °F 71% 30.27 in 10.0 mi NW 6.9 mph - N/A   Clear
3:41 AM -4.0 °F -19.0 °F -13.0 °F 65% 30.26 in 10.0 mi NW 8.1 mph - N/A   Clear
4:01 AM -5.8 °F -18.4 °F -13.0 °F 71% 30.27 in 10.0 mi NW 5.8 mph - N/A   Clear
4:21 AM -5.8 °F -19.9 °F -14.8 °F 65% 30.28 in 10.0 mi NW 6.9 mph - N/A   Clear
4:41 AM -5.8 °F -18.4 °F -14.8 °F 65% 30.29 in 10.0 mi NW 5.8 mph - N/A   Clear
5:01 AM -7.6 °F -18.8 °F -14.8 °F 71% 30.30 in 10.0 mi WNW 4.6 mph - N/A   Clear
5:21 AM -7.6 °F -20.6 °F -14.8 °F 71% 30.31 in 10.0 mi NW 5.8 mph - N/A   Clear
5:41 AM -7.6 °F -16.5 °F -14.8 °F 71% 30.31 in 10.0 mi WNW 3.5 mph - N/A   Clear
6:01 AM -7.6 °F -18.8 °F -14.8 °F 71% 30.32 in 10.0 mi WNW 4.6 mph - N/A   Clear
6:21 AM -7.6 °F -16.5 °F -16.6 °F 65% 30.33 in 10.0 mi WNW 3.5 mph - N/A   Clear
6:41 AM -9.4 °F -18.6 °F -16.6 °F 71% 30.33 in 10.0 mi WNW 3.5 mph - N/A   Clear
7:21 AM -9.4 °F -18.6 °F -16.6 °F 71% 30.34 in 10.0 mi NW 3.5 mph - N/A   Clear
7:41 AM -9.4 °F -20.9 °F -16.6 °F 71% 30.34 in 10.0 mi NW 4.6 mph - N/A   Clear
8:01 AM -9.4 °F -18.6 °F -18.4 °F 65% 30.35 in 10.0 mi WNW 3.5 mph - N/A   Clear
8:21 AM -9.4 °F - -18.4 °F 65% 30.35 in 10.0 mi NW 2.3 mph - N/A   Clear
8:41 AM -9.4 °F -18.6 °F -18.4 °F 65% 30.36 in 10.0 mi NW 3.5 mph - N/A   Clear
9:01 AM -9.4 °F -20.9 °F -16.6 °F 71% 30.36 in 10.0 mi NW 4.6 mph - N/A   Clear
9:21 AM -9.4 °F -22.7 °F -18.4 °F 65% 30.36 in 10.0 mi NNW 5.8 mph - N/A   Clear
9:41 AM -7.6 °F -16.5 °F -18.4 °F 59% 30.36 in 10.0 mi NNW 3.5 mph - N/A   Clear
10:01 AM -7.6 °F -23.4 °F -16.6 °F 65% 30.35 in 10.0 mi NNW 8.1 mph - N/A   Clear
10:21 AM -5.8 °F -22.4 °F -18.4 °F 55% 30.36 in 10.0 mi NW 9.2 mph - N/A   Clear
11:01 AM -5.8 °F -23.4 °F -18.4 °F 55% 30.34 in 10.0 mi NNW 10.4 mph - N/A   Clear
11:21 AM -5.8 °F -19.9 °F -16.6 °F 60% 30.33 in 10.0 mi North 6.9 mph - N/A   Clear
11:41 AM -4.0 °F -16.3 °F -16.6 °F 55% 30.32 in 10.0 mi North 5.8 mph - N/A   Clear
12:01 PM -2.2 °F -18.9 °F -16.6 °F 50% 30.32 in 10.0 mi NW 10.4 mph - N/A   Clear
12:21 PM -2.2 °F -15.6 °F -16.6 °F 50% 30.31 in 10.0 mi NW 6.9 mph - N/A   Clear
12:41 PM - - - N/A% - 10.0 mi Calm Calm - N/A   Clear
1:01 PM -2.2 °F -18.9 °F -18.4 °F 46% 30.29 in 10.0 mi NW 10.4 mph - N/A   Clear
1:21 PM -0.4 °F -16.7 °F -18.4 °F 43% 30.28 in 10.0 mi NW 10.4 mph - N/A   Clear
1:41 PM -0.4 °F -16.7 °F -18.4 °F 43% 30.28 in 10.0 mi NNW 10.4 mph 17.3 mph N/A   Clear
2:01 PM -0.4 °F -16.7 °F -18.4 °F 43% 30.27 in 10.0 mi North 10.4 mph - N/A   Clear
2:21 PM -0.4 °F -14.7 °F -18.4 °F 43% 30.26 in 10.0 mi NNW 8.1 mph 16.1 mph N/A   Clear
2:41 PM -0.4 °F -13.4 °F -18.4 °F 43% 30.27 in 10.0 mi NNW 6.9 mph - N/A   Clear
3:01 PM -2.2 °F -16.8 °F -18.4 °F 46% 30.27 in 10.0 mi NNW 8.1 mph - N/A   Clear
3:21 PM -2.2 °F -18.0 °F -18.4 °F 46% 30.27 in 10.0 mi NNW 9.2 mph - N/A   Clear
3:41 PM -2.2 °F -15.6 °F -16.6 °F 50% 30.28 in 10.0 mi NW 6.9 mph - N/A   Scattered Clouds
4:01 PM -2.2 °F -16.8 °F -16.6 °F 50% 30.28 in 10.0 mi NNW 8.1 mph - N/A   Mostly Cloudy
4:21 PM -4.0 °F -17.8 °F -14.8 °F 60% 30.28 in 7.0 mi NNW 6.9 mph 18.4 mph N/A   Mostly Cloudy
4:41 PM -5.8 °F -22.4 °F -16.6 °F 60% 30.29 in 10.0 mi NW 9.2 mph - N/A   Scattered Clouds
5:21 PM -5.8 °F -19.9 °F -16.6 °F 60% 30.29 in 7.0 mi NW 6.9 mph - N/A   Mostly Cloudy
5:41 PM -7.6 °F -24.6 °F -14.8 °F 71% 30.29 in 2.5 mi NW 9.2 mph - N/A   Overcast
6:01 PM -7.6 °F -26.6 °F -18.4 °F 59% 30.30 in 10.0 mi NNW 11.5 mph 18.4 mph N/A   Scattered Clouds
6:21 PM -7.6 °F -26.6 °F -20.2 °F 54% 30.30 in 10.0 mi NW 11.5 mph 18.4 mph N/A   Clear
6:41 PM -9.4 °F -28.9 °F -20.2 °F 59% 30.30 in 10.0 mi NW 11.5 mph 20.7 mph N/A   Scattered Clouds
7:01 PM -9.4 °F -27.9 °F -20.2 °F 59% 30.31 in 10.0 mi NW 10.4 mph 17.3 mph N/A   Scattered Clouds
7:21 PM -9.4 °F -24.3 °F -20.2 °F 59% 30.31 in 7.0 mi NW 6.9 mph 16.1 mph N/A   Mostly Cloudy
7:41 PM -9.4 °F -29.8 °F -20.2 °F 59% 30.30 in 5.0 mi NW 12.7 mph 18.4 mph N/A   Mostly Cloudy
8:01 PM -9.4 °F -29.8 °F -20.2 °F 59% 30.30 in 7.0 mi NW 12.7 mph 19.6 mph N/A   Scattered Clouds
8:21 PM -11.2 °F -31.1 °F -20.2 °F 64% 30.30 in 10.0 mi NW 11.5 mph 18.4 mph N/A   Clear
8:41 PM -11.2 °F -32.1 °F -22.0 °F 59% 30.30 in 10.0 mi NW 12.7 mph 18.4 mph N/A   Clear
9:01 PM -11.2 °F -30.1 °F -22.0 °F 59% 30.29 in 7.0 mi NW 10.4 mph 19.6 mph N/A   Scattered Clouds
9:21 PM -11.2 °F -31.1 °F -23.8 °F 54% 30.29 in 7.0 mi NW 11.5 mph 17.3 mph N/A   Scattered Clouds
9:41 PM -13.0 °F -31.3 °F -23.8 °F 59% 30.29 in 7.0 mi NW 9.2 mph - N/A   Mostly Cloudy
10:01 PM -13.0 °F -33.4 °F -22.0 °F 64% 30.29 in 4.0 mi NW 11.5 mph 18.4 mph N/A   Overcast
10:21 PM -14.8 °F -34.6 °F -23.8 °F 64% 30.29 in 10.0 mi NW 10.4 mph 16.1 mph N/A   Mostly Cloudy
10:41 PM -14.8 °F -33.5 °F -23.8 °F 64% 30.29 in 4.0 mi NW 9.2 mph 16.1 mph N/A   Overcast
11:01 PM -14.8 °F -38.3 °F -23.8 °F 64% 30.28 in 4.0 mi NW 15.0 mph 20.7 mph N/A   Overcast
11:21 PM -14.8 °F -38.3 °F -25.6 °F 58% 30.28 in 10.0 mi NW 15.0 mph 20.7 mph N/A   Scattered Clouds
11:41 PM -16.6 °F -37.9 °F -27.4 °F 58% 30.28 in 10.0 mi NW 11.5 mph 17.3 mph N/A   Clear